Date String (YYYY-MM-DD hh:mm:ss) UTC,Instrument flags,Ambient pressure (hPa),Sample flow (lpm),Bypass flow (lpm),Sample temperature (°C),Ambient temperature (°C),ASC tube jacket temperature (°C),LED temperature (°C),Box temperature (°C),Sample RH (%),Span deviation,Mass concentration (μg/m³),Mass concentration (μg/m³),Mass concentration (μg/m³)
DateTimeUTC,F1_M11,P_M11,Q1_M11,Q2_M11,T1_M11,T2_M11,T3_M11,T4_M11,T5_M11,U1_M11,ZSPAN_M11,X0_M11,X2_M11,X1_M11
2021-10-09 16:00:00,,0820.1,5.01,0.00,28.8,28.0,00.0,38.1,30.6,15.1,0000.0,0011.05,0003.20,0001.00
2021-10-09 16:01:00,,0820.2,5.00,0.00,28.8,28.0,00.0,38.1,30.6,14.6,0000.0,0010.44,0003.31,0001.01
2021-10-09 16:02:00,,0820.3,5.00,0.00,28.8,28.0,00.0,38.1,30.5,14.9,0000.0,0010.48,0003.30,0001.02
2021-10-09 16:03:00,,0820.2,5.00,0.00,28.8,28.0,00.0,38.1,30.5,15.1,0000.0,0010.44,0003.26,0001.03
2021-10-09 16:04:00,,0820.2,5.00,0.00,28.8,28.0,00.0,38.1,30.5,15.0,0000.0,0010.31,0003.13,0001.02
2021-10-09 16:05:00,,0820.3,5.00,0.00,28.8,28.0,00.0,38.0,30.5,14.9,0000.0,0009.70,0002.92,0001.00
2021-10-09 16:06:00,,0820.3,5.00,0.00,28.8,28.0,00.0,38.0,30.5,14.9,0000.0,0009.75,0002.85,0001.00
2021-10-09 16:07:00,,0820.4,5.01,0.00,28.8,28.0,00.0,38.0,30.5,14.8,0000.0,0009.48,0002.62,0000.98
2021-10-09 16:08:00,,0820.5,5.00,0.00,28.8,28.0,00.0,38.0,30.5,15.1,0000.0,0009.30,0002.57,0000.97
2021-10-09 16:09:00,,0820.3,4.99,0.00,28.8,27.9,00.0,38.0,30.5,15.0,0000.0,0009.43,0002.37,0000.96
2021-10-09 16:10:00,,0820.2,4.98,0.00,28.8,27.9,00.0,38.0,30.5,14.7,0000.0,0009.37,0002.30,0000.95
2021-10-09 16:11:00,,0820.3,5.01,0.00,28.8,28.0,00.0,38.0,30.6,14.6,0000.0,0009.25,0002.23,0000.95
2021-10-09 16:12:00,,0820.3,5.00,0.00,28.8,28.0,00.0,38.0,30.6,14.6,0000.0,0009.01,0001.91,0000.92
2021-10-09 16:13:00,,0820.2,5.00,0.00,28.8,28.0,00.0,38.0,30.5,14.5,0000.0,0009.44,0001.89,0000.92
2021-10-09 16:14:00,,0820.3,5.00,0.00,28.8,28.0,00.0,38.0,30.5,14.4,0000.0,0009.51,0001.92,0000.91
2021-10-09 16:15:00,,0820.2,5.01,0.00,28.8,28.0,00.0,38.0,30.5,14.5,0000.0,0009.48,0001.94,0000.90
2021-10-09 16:16:00,,0820.2,5.00,0.00,28.8,28.0,00.0,38.0,30.5,14.3,0000.0,0009.41,0002.02,0000.91
2021-10-09 16:17:00,,0820.1,4.99,0.00,28.8,28.0,00.0,38.0,30.5,14.2,0000.0,0008.80,0002.03,0000.91
2021-10-09 16:18:00,,0820.1,5.00,0.00,28.8,28.0,00.0,38.0,30.5,14.1,0000.0,0008.76,0002.16,0000.92
2021-10-09 16:19:00,,0820.2,5.00,0.00,28.8,28.0,00.0,38.0,30.5,14.1,0000.0,0008.92,0002.23,0000.93
2021-10-09 16:20:00,,0820.2,5.01,0.00,28.8,28.0,00.0,38.0,30.5,14.1,0000.0,0008.49,0002.32,0000.94
2021-10-09 16:21:00,,0820.1,5.01,0.00,28.8,28.0,00.0,38.0,30.5,14.2,0000.0,0008.49,0002.50,0000.94
2021-10-09 16:22:00,,0820.2,4.99,0.00,28.8,28.0,00.0,38.0,30.6,14.3,0000.0,0008.86,0002.56,0000.95
2021-10-09 16:23:00,,0820.3,4.99,0.00,28.8,28.0,00.0,38.0,30.5,14.3,0000.0,0009.26,0002.70,0000.96
2021-10-09 16:24:00,,0820.3,5.01,0.00,28.8,28.0,00.0,38.0,30.6,14.3,0000.0,0008.66,0002.74,0000.97
2021-10-09 16:25:00,,0820.4,5.00,0.00,28.8,28.0,00.0,38.0,30.6,14.4,0000.0,0008.45,0002.75,0000.97
2021-10-09 16:26:00,,0820.5,5.02,0.00,28.8,28.0,00.0,38.0,30.5,14.5,0000.0,0008.75,0002.69,0000.98
2021-10-09 16:27:00,,0820.6,5.00,0.00,28.8,28.0,00.0,38.0,30.5,14.7,0000.0,0008.97,0002.64,0000.98
2021-10-09 16:28:00,,0820.6,5.00,0.00,28.8,28.0,00.0,38.0,30.5,14.6,0000.0,0009.08,0002.70,0000.98
2021-10-09 16:29:00,,0820.6,5.01,0.00,28.8,28.0,00.0,38.0,30.5,14.5,0000.0,0008.94,0002.59,0000.96
2021-10-09 16:30:00,,0820.5,5.00,0.00,28.8,28.0,00.0,38.0,30.5,14.5,0000.0,0008.97,0002.52,0000.95
2021-10-09 16:31:00,,0820.4,5.00,0.00,28.8,28.0,00.0,38.0,30.5,14.5,0000.0,0009.60,0002.53,0000.95
2021-10-09 16:32:00,,0820.6,5.00,0.00,28.8,28.0,00.0,38.0,30.5,14.5,0000.0,0009.86,0002.46,0000.94
2021-10-09 16:33:00,,0820.5,5.00,0.00,28.8,28.0,00.0,38.0,30.5,14.8,0000.0,0009.40,0002.28,0000.91
2021-10-09 16:34:00,,0820.5,5.00,0.00,28.8,28.0,00.0,38.0,30.5,15.0,0000.0,0009.84,0002.16,0000.88
2021-10-09 16:35:00,,0820.4,5.01,0.00,28.8,28.0,00.0,38.0,30.5,15.1,0000.0,0010.32,0002.33,0000.88
2021-10-09 16:36:00,,0820.4,4.99,0.00,28.8,28.0,00.0,38.0,30.6,15.1,0000.0,0011.15,0002.44,0000.88
2021-10-09 16:37:00,,0820.2,5.01,0.00,28.8,28.0,00.0,38.0,30.6,15.1,0000.0,0012.14,0002.73,0000.87
2021-10-09 16:38:00,,0820.3,4.98,0.00,28.8,28.0,00.0,38.0,30.6,15.2,0000.0,0012.66,0002.96,0000.87
2021-10-09 16:39:00,,0820.3,5.01,0.00,28.8,28.0,00.0,38.0,30.6,15.2,0000.0,0013.01,0003.08,0000.88
2021-10-09 16:40:00,,0820.4,5.00,0.00,28.8,28.0,00.0,38.0,30.5,15.3,0000.0,0014.04,0003.25,0000.91
2021-10-09 16:41:00,,0820.5,4.99,0.00,28.8,28.0,00.0,38.0,30.5,15.3,0000.0,0014.35,0003.34,0000.92
2021-10-09 16:42:00,,0820.5,5.00,0.00,28.8,27.9,00.0,38.0,30.5,15.4,0000.0,0014.82,0003.43,0000.93
2021-10-09 16:43:00,,0820.4,5.01,0.00,28.7,27.9,00.0,38.0,30.5,15.4,0000.0,0015.24,0003.49,0000.94
2021-10-09 16:44:00,,0820.4,5.00,0.00,28.7,27.9,00.0,38.0,30.5,15.4,0000.0,0016.38,0003.62,0000.96
2021-10-09 16:45:00,,0820.2,4.99,0.00,28.7,27.9,00.0,38.0,30.5,15.3,0000.0,0015.54,0003.67,0000.98
2021-10-09 16:46:00,,0820.4,4.99,0.00,28.7,27.9,00.0,38.0,30.5,15.3,0000.0,0015.60,0003.68,0000.97
2021-10-09 16:47:00,,0820.6,5.00,0.00,28.7,27.9,00.0,38.0,30.5,15.4,0000.0,0016.32,0003.75,0000.97
2021-10-09 16:48:00,,0820.6,5.02,0.00,28.7,27.9,00.0,38.0,30.5,15.3,0000.0,0016.69,0003.70,0000.98
2021-10-09 16:49:00,,0820.6,4.99,0.00,28.7,27.9,00.0,38.0,30.5,15.1,0000.0,0016.50,0003.69,0000.96
2021-10-09 16:50:00,,0820.6,5.01,0.00,28.7,27.9,00.0,38.0,30.4,15.2,0000.0,0016.20,0003.63,0000.93
2021-10-09 16:51:00,,0820.6,5.00,0.00,28.7,27.9,00.0,38.0,30.5,15.3,0000.0,0015.96,0003.52,0000.91
2021-10-09 16:52:00,,0820.6,4.99,0.00,28.7,27.9,00.0,38.0,30.5,15.2,0000.0,0015.93,0003.50,0000.89
2021-10-09 16:53:00,,0820.6,5.00,0.00,28.7,27.9,00.0,38.0,30.5,15.3,0000.0,0015.24,0003.47,0000.87
2021-10-09 16:54:00,,0820.5,5.01,0.00,28.7,27.9,00.0,38.0,30.5,15.3,0000.0,0014.63,0003.43,0000.86
2021-10-09 16:55:00,,0820.7,5.01,0.00,28.7,27.9,00.0,38.0,30.5,15.3,0000.0,0013.84,0003.40,0000.84
2021-10-09 16:56:00,,0820.7,4.99,0.00,28.7,27.9,00.0,38.0,30.5,15.5,0000.0,0014.53,0003.43,0000.81
2021-10-09 16:57:00,,0820.8,5.01,0.00,28.7,27.9,00.0,38.0,30.5,15.5,0000.0,0014.79,0003.38,0000.80
2021-10-09 16:58:00,,0820.8,5.00,0.00,28.7,27.9,00.0,38.0,30.5,15.3,0000.0,0013.35,0003.24,0000.76
2021-10-09 16:59:00,,0820.8,4.99,0.00,28.7,27.9,00.0,38.0,30.5,15.3,0000.0,0011.34,0003.14,0000.73
